[[{"header":{"parameterUnit":"m.s-1","parameterCategory":1,"la1":30.2991,"la2":30.254,"lo1":-89.0895,"lo2":-89.0444,"dy":0.0017,"dx":0.0017,"nx":28,"ny":28,"refTime":"2024-10-04T03:00:00:Z","depth":0,"parameterNumber":2,"parameterNumberName":"U-component_of_WINDS"},"data":[0,0,0,0,0,0,0,0,0,0,0,0,0,0,0,0,0,0,0,0,0,0,0,0,0,0,0,0,0,0,0,0,0,0,0,0,0,0,0,0,0,0,0,0,0,0,0,0,0,0,0,0,0,0,0,0,0,0,-3.9913,-3.9913,0,-3.9978,-3.9979,-3.9979,-3.9872,-3.9869,-3.9865,-3.9862,-3.9929,-3.9934,-3.9939,0,0,0,0,0,0,0,0,0,0,0,0,0,-3.9697,-3.9701,-3.9913,-3.9913,-3.9914,-3.9978,-3.9979,-3.998,-3.9873,-3.9869,-3.9864,-3.986,-3.9927,-3.9934,-3.994,0,0,0,0,0,0,0,0,0,0,0,0,0,-3.9779,-3.9703,-3.9912,-3.9869,-3.9865,-3.9978,-3.9979,-3.998,-3.9874,-3.9869,-3.9863,-3.9858,-3.9925,-3.9933,-3.9941,-4.0098,0,0,-3.9964,-3.9968,0,0,0,0,0,0,0,0,-3.9775,-3.9787,-3.9874,-3.9872,-3.9869,-3.9911,-3.9927,-4.002,-3.9875,-3.9871,-3.9862,-3.9855,-3.9928,-3.9935,-3.9959,-4.0102,-4.0104,-3.9965,-3.997,-3.9973,-3.9975,0,0,0,0,0,0,0,-3.9769,-3.9784,-3.9938,-3.9876,-3.9872,-3.9846,-3.9852,-3.9944,-3.9929,-3.9871,-3.9863,-3.9872,-3.9925,-3.9952,-3.996,-4.0105,-3.9965,-3.9972,-3.9977,-3.998,-4.0383,-4.0388,0,0,0,0,0,0,-3.9769,-3.978,-3.9936,-3.994,-3.9807,-3.9855,-3.9861,-3.9903,-3.9928,-3.9926,-3.9877,-3.9867,-3.9941,-3.9951,-3.9962,-4.0149,-3.9973,-3.998,-3.9985,-4.0377,-4.0384,-4.039,0,0,0,0,0,0,-3.9765,-3.9784,-3.9934,-3.9858,-3.9875,-3.9864,-3.9913,-3.9907,-3.9934,-3.9933,-3.9929,-3.9907,-3.9937,-3.9951,-4.0066,-4.0149,-3.9984,-3.9991,-4.037,-4.0379,-4.0387,-4.0523,0,0,0,0,0,0,-3.9759,-3.9783,-3.9842,-3.986,-3.988,-4.0036,-3.9918,-3.9913,-3.9948,-3.9936,-3.996,-3.9959,-3.9934,-4.0055,-4.0073,-4.0157,-3.9997,-4.0362,-4.0374,-4.0384,-4.0511,-4.0536,-4.0557,0,0,0,0,0,-3.9751,-3.9877,-3.9846,-3.9865,-3.9953,-4.0041,-4.0052,-4.0021,-3.9955,-4.0015,-4.0014,-3.9958,-4.0138,-4.0067,-4.0087,-4.0175,-4.0356,-4.037,-4.0383,-4.0501,-4.0531,-4.0557,0,0,0,0,0,0,-3.9868,-3.9879,-3.9844,-3.9979,-4.001,-4.0023,-4.0096,-4.0053,-4.0103,-4.009,-4.0049,-4.0056,-4.0179,-4.0189,-4.011,-4.033,-4.0236,-4.0255,-4.0319,-4.0347,-4.037,-4.0364,-4.0004,0,0,0,0,0,-3.991,-3.998,-3.9986,-4.0105,-4.0122,-4.0108,-4.0144,-4.0118,-4.0148,-4.0161,-4.0168,-4.02,-4.0264,-4.0306,-4.0365,-4.0513,-4.0517,-4.0584,-4.0607,-4.0626,-4.0641,-4.0721,-4.0751,-4.0435,-4.0435,-4.0435,0,0,-3.9996,-4.0011,-4.0057,-4.0129,-4.0149,-4.0223,-4.0119,-4.0201,-4.0255,-4.0173,-4.0281,-4.0289,-4.0322,-4.0455,-4.0513,-4.0466,-4.073,-4.0643,-4.0658,-4.0663,-4.0738,-4.0768,-4.0795,-4.0444,-4.0442,-4.0441,0,0,-4.0191,-4.021,-4.0311,-4.0335,-4.0368,-4.0358,-4.0383,-4.0403,-4.0405,-4.0513,-4.0454,-4.0519,-4.0629,-4.0655,-4.0683,-4.0892,-4.0843,-4.0913,-4.1031,-4.111,-4.1135,-4.1157,-4.1231,-4.1259,-4.0929,-4.0929,-4.093,0,-4.0294,-4.0402,-4.0369,-4.0456,-4.0489,-4.042,-4.0523,-4.0547,-4.0598,-4.0623,-4.057,-4.0709,-4.0726,-4.0864,-4.0916,-4.0941,-4.0968,-4.0908,-4.1134,-4.1156,-4.1176,-4.1246,-4.1274,-4.0938,-4.0937,-4.0936,-4.0935,0,-4.0527,-4.0604,-4.0682,-4.0734,-4.0776,-4.0871,-4.0852,-4.09,-4.0872,-4.0867,-4.098,-4.0999,-4.1061,-4.1092,-4.1065,-4.1228,-4.1197,-4.1141,-4.1045,-4.1215,-4.128,-4.1307,-4.0949,-4.0946,-4.0944,-4.0942,0,0,-4.0793,-4.0828,-4.0857,-4.088,-4.0914,-4.0972,-4.1065,-4.1126,-4.1168,-4.1207,-4.1283,-4.138,-4.1328,-4.136,-4.1336,-4.1405,-4.157,-4.134,-4.134,-4.1381,-4.1751,-4.1793,-4.1824,-4.1539,-4.1544,-4.1548,-4.1748,0,-4.0986,-4.1145,-4.112,-4.1274,-4.1345,-4.1282,-4.1363,-4.1393,-4.1393,-4.1453,-4.1453,-4.1522,-4.1449,-4.1468,-4.1534,-4.1536,-4.1644,-4.1521,-4.161,-4.1613,-4.1601,-4.1859,-4.1902,-4.209,-4.1774,-4.1778,-4.1781,0,-4.1231,-4.128,-4.1442,-4.1467,-4.1495,-4.1568,-4.1623,-4.1682,-4.1716,-4.1711,-4.1749,-4.1712,-4.1806,-4.1712,-4.184,-4.1758,-4.1793,-4.18,-4.1807,-4.1812,-4.1706,-4.187,-4.2149,-4.2177,-4.1821,-4.1818,-4.1815,0,-4.1408,-4.1515,-4.1626,-4.1648,-4.1679,-4.1732,-4.1748,-4.1776,-4.1816,-4.1864,-4.1889,-4.1949,-4.1981,-4.2028,-4.2009,-4.1942,-4.2142,-4.2046,-4.2141,-4.2142,-4.2183,-4.2181,-4.2471,-4.221,-4.2209,-4.2209,-4.2208,0,-4.1625,-4.1726,-4.1706,-4.1774,-4.1886,-4.1857,-4.1969,-4.1977,-4.2004,-4.2072,-4.2023,-4.2089,-4.2061,-4.2126,-4.2112,-4.2221,-4.2236,-4.2235,-4.223,-4.2239,-4.2239,-4.2259,-4.2245,-4.2216,-4.2215,-4.2213,-4.2212,0,-4.184,-4.183,-4.1947,-4.1969,-4.1977,-4.2058,-4.2077,-4.2141,-4.2139,-4.2227,-4.2246,-4.2242,-4.2316,-4.2303,-4.2385,-4.2376,-4.2512,-4.2492,-4.25,-4.2495,-4.259,-4.2581,-4.2902,-4.2943,-4.2658,-4.266,-4.2663,0,-4.1978,-4.2054,-4.2085,-4.2128,-4.2148,-4.2218,-4.2258,-4.2234,-4.2278,-4.2324,-4.2383,-4.2453,-4.2507,-4.2628,-4.2633,-4.2696,-4.2676,-4.2785,-4.2685,-4.2692,-4.2676,-4.2671,-4.2679,-4.2803,-4.2806,-4.2809,-4.2811,0,-4.2223,-4.2216,-4.2275,-4.2335,-4.2385,-4.243,-4.2471,-4.2509,-4.2488,-4.2541,-4.2616,-4.2658,-4.2743,-4.2813,-4.2872,-4.2889,-4.2848,-4.2844,-4.2868,-4.2876,-4.2878,-4.2878,-4.2552,-4.2835,-4.2833,-4.2831,-4.283,-4.2829,-4.2402,-4.2468,-4.2501,-4.257,-4.2599,-4.2639,-4.27,-4.2707,-4.2769,-4.2836,-4.2818,-4.2904,-4.2939,-4.3014,-4.3038,-4.3106,-4.3065,-4.3102,-4.3111,-4.3119,-4.313,-4.287,-4.3117,-4.3116,-4.3115,-4.3115,-4.3114,0,-4.2644,-4.2663,-4.2727,-4.2786,-4.2841,-4.2799,-4.2843,-4.2892,-4.2968,-4.3004,-4.3059,-4.3146,-4.3215,-4.3227,-4.3293,-4.3345,-4.3327,-4.3363,-4.3357,-4.3362,-4.3163,-4.3134,-4.3376,-4.3376,-4.3375,-4.3375,-4.3375,-4.3375,-4.2776,-4.2885,-4.2882,-4.3006,-4.3024,-4.3107,-4.3136,-4.3173,-4.3202,-4.3302,-4.3359,-4.3367,-4.3394,-4.3462,-4.3524,-4.3525,-4.3551,-4.3594,-4.3589,-4.3402,-4.3376,-4.3351,-4.3323,-4.36,-4.3601,-4.3781,-4.3783,-4.3784]},{"header":{"parameterUnit":"m.s-1","parameterCategory":1,"la1":30.2991,"la2":30.254,"lo1":-89.0895,"lo2":-89.0444,"dy":0.0017,"dx":0.0017,"nx":28,"ny":28,"refTime":"2024-10-04T03:00:00:Z","depth":0,"parameterNumber":3,"parameterNumberName":"V-component_of_WINDS"},"data":[0,0,0,0,0,0,0,0,0,0,0,0,0,0,0,0,0,0,0,0,0,0,0,0,0,0,0,0,0,0,0,0,0,0,0,0,0,0,0,0,0,0,0,0,0,0,0,0,0,0,0,0,0,0,0,0,0,0,-0.7439,-0.7442,0,-0.772,-0.7723,-0.7726,-0.7934,-0.7936,-0.7938,-0.794,-0.8221,-0.8226,-0.8232,0,0,0,0,0,0,0,0,0,0,0,0,0,-0.7079,-0.7085,-0.7439,-0.7442,-0.7446,-0.7719,-0.7723,-0.7727,-0.7934,-0.7936,-0.7939,-0.7941,-0.8219,-0.8226,-0.8233,0,0,0,0,0,0,0,0,0,0,0,0,0,-0.7285,-0.7086,-0.7438,-0.7582,-0.7598,-0.7718,-0.7723,-0.7728,-0.7934,-0.7936,-0.7939,-0.7942,-0.8217,-0.8225,-0.8234,-0.8231,0,0,-0.826,-0.8264,0,0,0,0,0,0,0,0,-0.7273,-0.7298,-0.7558,-0.7573,-0.759,-0.7795,-0.7699,-0.7896,-0.7933,-0.7806,-0.794,-0.7943,-0.8076,-0.8097,-0.8143,-0.8244,-0.8256,-0.8261,-0.8266,-0.827,-0.8272,0,0,0,0,0,0,0,-0.7258,-0.7287,-0.755,-0.7561,-0.7581,-0.7632,-0.7664,-0.7738,-0.7922,-0.7817,-0.7833,-0.7864,-0.8086,-0.8134,-0.8151,-0.826,-0.826,-0.8268,-0.8273,-0.8277,-0.8377,-0.8375,0,0,0,0,0,0,-0.7222,-0.7273,-0.7541,-0.7558,-0.7435,-0.7636,-0.7672,-0.7726,-0.7922,-0.7954,-0.7861,-0.7872,-0.8118,-0.8141,-0.8162,-0.8175,-0.827,-0.8278,-0.8283,-0.8379,-0.8376,-0.8374,0,0,0,0,0,0,-0.7214,-0.7244,-0.7529,-0.742,-0.7461,-0.7639,-0.7698,-0.773,-0.7779,-0.7955,-0.7988,-0.7877,-0.8121,-0.815,-0.8214,-0.8187,-0.8281,-0.8289,-0.8382,-0.8378,-0.8375,-0.8198,0,0,0,0,0,0,-0.7202,-0.724,-0.7241,-0.7419,-0.7466,-0.7577,-0.7697,-0.7734,-0.7794,-0.7812,-0.7979,-0.8009,-0.8126,-0.82,-0.8222,-0.8201,-0.8296,-0.8386,-0.8381,-0.8376,-0.8207,-0.8188,-0.8173,0,0,0,0,0,-0.7189,-0.7178,-0.724,-0.7271,-0.7471,-0.7575,-0.7602,-0.7738,-0.7791,-0.7794,-0.7908,-0.8004,-0.8186,-0.8204,-0.8232,-0.8212,-0.8388,-0.8382,-0.8377,-0.8215,-0.8192,-0.8173,0,0,0,0,0,0,-0.699,-0.7204,-0.7275,-0.7322,-0.7429,-0.761,-0.7618,-0.7709,-0.7802,-0.7814,-0.7978,-0.8013,-0.806,-0.8143,-0.8159,-0.8222,-0.8299,-0.8299,-0.8167,-0.8147,-0.813,-0.811,-0.8303,0,0,0,0,0,-0.6951,-0.7019,-0.7202,-0.7225,-0.7276,-0.7437,-0.7487,-0.7583,-0.77,-0.7746,-0.7864,-0.7972,-0.8055,-0.8105,-0.819,-0.8219,-0.826,-0.822,-0.8203,-0.8188,-0.8186,-0.821,-0.8195,-0.8355,-0.8355,-0.8355,0,0,-0.6873,-0.6998,-0.703,-0.7189,-0.7283,-0.7349,-0.7474,-0.7537,-0.7588,-0.7755,-0.7824,-0.7914,-0.8046,-0.8093,-0.812,-0.8163,-0.815,-0.8181,-0.8167,-0.8174,-0.8202,-0.8187,-0.8173,-0.8351,-0.8352,-0.8353,0,0,-0.6764,-0.6864,-0.6897,-0.699,-0.7133,-0.7241,-0.7247,-0.7416,-0.7483,-0.7556,-0.7683,-0.7745,-0.7882,-0.7972,-0.8035,-0.7962,-0.8055,-0.7985,-0.7896,-0.7918,-0.7906,-0.7895,-0.7871,-0.786,-0.7982,-0.7982,-0.7982,0,-0.6647,-0.6754,-0.6901,-0.696,-0.7026,-0.7183,-0.7217,-0.7299,-0.746,-0.7502,-0.7549,-0.7728,-0.7827,-0.7899,-0.7881,-0.7927,-0.7941,-0.7967,-0.7896,-0.7887,-0.7879,-0.7858,-0.7849,-0.7973,-0.7974,-0.7975,-0.7976,0,-0.6605,-0.6677,-0.6685,-0.6842,-0.6909,-0.6953,-0.7108,-0.7158,-0.7248,-0.735,-0.7423,-0.7548,-0.7662,-0.7686,-0.7773,-0.7771,-0.7794,-0.7865,-0.7947,-0.7852,-0.7836,-0.7828,-0.7959,-0.7963,-0.7966,-0.7968,0,0,-0.6378,-0.6618,-0.6618,-0.6693,-0.6862,-0.692,-0.6972,-0.7087,-0.7128,-0.7234,-0.7283,-0.7397,-0.7465,-0.7537,-0.7636,-0.7654,-0.7592,-0.7725,-0.7731,-0.7697,-0.7599,-0.7545,-0.7533,-0.7654,-0.7653,-0.7652,-0.7588,0,-0.6298,-0.6404,-0.6539,-0.6598,-0.6667,-0.6818,-0.6864,-0.6972,-0.7069,-0.7141,-0.7248,-0.7327,-0.7411,-0.7456,-0.7481,-0.7594,-0.7574,-0.76,-0.77,-0.7702,-0.7664,-0.7524,-0.7467,-0.7401,-0.7582,-0.7581,-0.7581,0,-0.6218,-0.632,-0.6387,-0.6554,-0.6588,-0.6627,-0.6745,-0.6811,-0.6937,-0.7007,-0.7088,-0.7195,-0.7258,-0.7329,-0.7418,-0.7433,-0.7482,-0.7543,-0.7544,-0.756,-0.7636,-0.7538,-0.7384,-0.7374,-0.7571,-0.7572,-0.7573,0,-0.6049,-0.6203,-0.6264,-0.6322,-0.6517,-0.6541,-0.6623,-0.6753,-0.6814,-0.6916,-0.6957,-0.7063,-0.7121,-0.72,-0.7333,-0.7373,-0.7408,-0.749,-0.7468,-0.7464,-0.7469,-0.7467,-0.7322,-0.7497,-0.7497,-0.7497,-0.7497,0,-0.5947,-0.5982,-0.6192,-0.6229,-0.6273,-0.6428,-0.6467,-0.6562,-0.6676,-0.6735,-0.687,-0.6921,-0.7093,-0.7164,-0.7267,-0.7326,-0.7351,-0.7408,-0.7436,-0.7398,-0.739,-0.7433,-0.7442,-0.7495,-0.7495,-0.7496,-0.7496,0,-0.5766,-0.5908,-0.5985,-0.6164,-0.621,-0.6235,-0.6388,-0.643,-0.6535,-0.6607,-0.6633,-0.6798,-0.6889,-0.7029,-0.716,-0.7231,-0.7272,-0.7316,-0.723,-0.7247,-0.7218,-0.7219,-0.7096,-0.7089,-0.7264,-0.7262,-0.7261,0,-0.5693,-0.5725,-0.5908,-0.5958,-0.6036,-0.6114,-0.6179,-0.6332,-0.6392,-0.654,-0.6563,-0.6666,-0.6756,-0.6894,-0.7024,-0.7126,-0.7175,-0.7125,-0.7191,-0.7152,-0.7176,-0.7174,-0.7178,-0.7109,-0.7106,-0.7104,-0.7103,0,-0.5548,-0.5617,-0.5706,-0.5819,-0.5892,-0.5988,-0.609,-0.6122,-0.6297,-0.6359,-0.6455,-0.6525,-0.6661,-0.6761,-0.6881,-0.6965,-0.7062,-0.7081,-0.7081,-0.7043,-0.6993,-0.7022,-0.719,-0.7083,-0.7085,-0.7086,-0.7087,-0.7088,-0.5421,-0.5458,-0.5593,-0.5688,-0.5781,-0.5874,-0.5923,-0.6035,-0.6119,-0.6244,-0.6329,-0.642,-0.6547,-0.6719,-0.6797,-0.687,-0.6912,-0.6912,-0.6912,-0.691,-0.6897,-0.698,-0.6891,-0.6892,-0.6893,-0.6894,-0.6894,0,-0.5286,-0.5381,-0.5466,-0.5607,-0.5681,-0.5769,-0.5887,-0.5942,-0.6022,-0.6133,-0.622,-0.633,-0.6428,-0.6567,-0.6674,-0.6706,-0.6754,-0.6729,-0.6729,-0.6747,-0.6852,-0.6842,-0.6689,-0.6689,-0.6689,-0.6689,-0.6689,-0.6689,-0.5224,-0.5291,-0.5376,-0.549,-0.5585,-0.5678,-0.5738,-0.5824,-0.5914,-0.6033,-0.6116,-0.6206,-0.6328,-0.6446,-0.654,-0.6578,-0.6612,-0.6574,-0.6625,-0.6721,-0.674,-0.6758,-0.6749,-0.6579,-0.6579,-0.6515,-0.6514,-0.6514]}]]